Savoonga, AK

4:46 AM AKDT on September 22, 2017 (GMT -0800)
Savoonga

Weather History for PASA - October, 2012

Change the Weather History Date:

Tuesday, October 9, 2012

  Actual Average Record
Temperature  
Mean Temperature 34 °F -  
Max Temperature 35 °F 34 °F 48 °F (2016)
Min Temperature 32 °F 30 °F 24 °F (1996)
Degree Days  
Heating Degree Days 32    
Moisture  
Dew Point 26 °F    
Average Humidity 74    
Maximum Humidity 81    
Minimum Humidity 65    
Precipitation  
Precipitation 0.00 in - - ()
Sea Level Pressure  
Sea Level Pressure 30.49 in    
Wind  
Wind Speed 23 mph (NE)    
Max Wind Speed 31 mph    
Max Gust Speed 38 mph    
Visibility 10 miles    
Events      
Averages and records for this station are not official NWS values.
T = Trace of Precipitation, MM = Missing Value Source: NWS Daily Summary

Daily Weather History Graph

Daily Weather History Graph

Search for Another Location

Airport or City:

Trip Planner

Search our weather history database for the weather conditions in past years. The results will help you decide how hot, cold, wet, or windy it might be!

Date:

Astronomy

Oct. 09, 2012 Rise Set
Actual Time 9:55 AM AKDT 8:21 PM AKDT
Civil Twilight 9:08 AM AKDT 9:08 PM AKDT
Nautical Twilight 8:13 AM AKDT 10:02 PM AKDT
Astronomical Twilight 7:17 AM AKDT 10:58 PM AKDT
Moon 1:47 AM AKDT (10/9) 6:38 PM AKDT (10/9)
Length of Visible Light 11h 59m
Length of Day
10h 25m
Waning Crescent, 35% of the Moon is Illuminated
Oct 9
Waning Crescent
Oct 15
New
Oct 21
First Quarter
Oct 29
Full
Nov 6
Last Quarter

Hourly Weather History & Observations

Time (AKDT) Temp. Windchill Dew Point Humidity Pressure Visibility Wind Dir Wind Speed Gust Speed Precip Events Conditions
12:16 AM 33.8 °F 21.9 °F 23.0 °F 65% 30.56 in 10.0 mi NE 21.9 mph 28.8 mph N/A   Overcast
12:36 AM 33.8 °F 21.9 °F 23.0 °F 65% 30.55 in 10.0 mi ENE 21.9 mph 31.1 mph N/A   Overcast
12:56 AM 33.8 °F 21.0 °F 23.0 °F 65% 30.56 in 10.0 mi NE 25.3 mph - N/A   Overcast
1:16 AM 33.8 °F 21.6 °F 24.8 °F 70% 30.56 in 10.0 mi ENE 23.0 mph 29.9 mph N/A   Overcast
1:36 AM 33.8 °F 21.6 °F 24.8 °F 70% 30.56 in 10.0 mi NE 23.0 mph 33.4 mph N/A   Overcast
1:56 AM 33.8 °F 21.0 °F 24.8 °F 70% 30.55 in 10.0 mi ENE 25.3 mph 31.1 mph N/A   Overcast
2:16 AM 33.8 °F 21.3 °F 24.8 °F 70% 30.55 in 10.0 mi ENE 24.2 mph 31.1 mph N/A   Overcast
2:36 AM 33.8 °F 21.3 °F 24.8 °F 70% 30.55 in 10.0 mi NE 24.2 mph - N/A   Overcast
2:56 AM 33.8 °F 21.3 °F 24.8 °F 70% 30.55 in 10.0 mi ENE 24.2 mph 32.2 mph N/A   Overcast
3:16 AM 33.8 °F 21.0 °F 24.8 °F 70% 30.55 in 10.0 mi NE 25.3 mph 29.9 mph N/A   Overcast
3:36 AM 33.8 °F 21.3 °F 24.8 °F 70% 30.54 in 10.0 mi NE 24.2 mph 34.5 mph N/A   Overcast
3:56 AM 33.8 °F 20.8 °F 24.8 °F 70% 30.54 in 10.0 mi NE 26.5 mph 33.4 mph N/A   Overcast
4:16 AM 33.8 °F 21.0 °F 24.8 °F 70% 30.53 in 10.0 mi NE 25.3 mph 32.2 mph N/A   Overcast
4:36 AM 33.8 °F 20.8 °F 24.8 °F 70% 30.53 in 10.0 mi ENE 26.5 mph 34.5 mph N/A   Mostly Cloudy
4:56 AM 33.8 °F 20.5 °F 24.8 °F 70% 30.52 in 10.0 mi NE 27.6 mph 35.7 mph N/A   Partly Cloudy
5:16 AM 33.8 °F 21.0 °F 24.8 °F 70% 30.51 in 10.0 mi NE 25.3 mph 33.4 mph N/A   Clear
5:36 AM 33.8 °F 20.1 °F 24.8 °F 70% 30.51 in 10.0 mi NE 29.9 mph 35.7 mph N/A   Clear
5:56 AM 33.8 °F 21.0 °F 24.8 °F 70% 30.51 in 10.0 mi NE 25.3 mph 33.4 mph N/A   Clear
6:16 AM 33.8 °F 19.9 °F 24.8 °F 70% 30.50 in 10.0 mi NE 31.1 mph 36.8 mph N/A   Clear
6:36 AM 33.8 °F 21.0 °F 24.8 °F 70% 30.51 in 10.0 mi NE 25.3 mph 38.0 mph N/A   Clear
6:56 AM 33.8 °F 20.5 °F 24.8 °F 70% 30.51 in 10.0 mi NE 27.6 mph 33.4 mph N/A   Clear
7:16 AM 33.8 °F 20.1 °F 24.8 °F 70% 30.50 in 10.0 mi NE 29.9 mph 34.5 mph N/A   Clear
7:36 AM 33.8 °F 20.3 °F 26.6 °F 75% 30.50 in 10.0 mi NE 28.8 mph 35.7 mph N/A   Mostly Cloudy
7:56 AM 32.0 °F 18.1 °F 26.6 °F 80% 30.50 in 10.0 mi NE 27.6 mph 33.4 mph N/A   Mostly Cloudy
8:16 AM 33.8 °F 20.8 °F 26.6 °F 75% 30.50 in 10.0 mi NE 26.5 mph 33.4 mph N/A   Mostly Cloudy
8:36 AM 33.8 °F 20.3 °F 24.8 °F 70% 30.50 in 10.0 mi ENE 28.8 mph 35.7 mph N/A   Scattered Clouds
8:56 AM 33.8 °F 20.8 °F 24.8 °F 70% 30.50 in 10.0 mi NE 26.5 mph 34.5 mph N/A   Scattered Clouds
9:16 AM 32.0 °F 18.6 °F 24.8 °F 75% 30.50 in 10.0 mi NE 25.3 mph 33.4 mph N/A   Scattered Clouds
9:36 AM 33.8 °F 20.3 °F 24.8 °F 70% 30.50 in 10.0 mi ENE 28.8 mph 33.4 mph N/A   Scattered Clouds
9:56 AM 33.8 °F 21.3 °F 24.8 °F 70% 30.51 in 10.0 mi ENE 24.2 mph 31.1 mph N/A   Partly Cloudy
10:16 AM 33.8 °F 21.0 °F 24.8 °F 70% 30.51 in 10.0 mi NE 25.3 mph 31.1 mph N/A   Partly Cloudy
10:36 AM 33.8 °F 20.8 °F 24.8 °F 70% 30.51 in 10.0 mi ENE 26.5 mph 29.9 mph N/A   Partly Cloudy
10:56 AM 33.8 °F 21.0 °F 24.8 °F 70% 30.50 in 10.0 mi NE 25.3 mph 29.9 mph N/A   Scattered Clouds
11:16 AM 33.8 °F 21.3 °F 24.8 °F 70% 30.50 in 10.0 mi NE 24.2 mph 29.9 mph N/A   Scattered Clouds
11:36 AM 33.8 °F 21.3 °F 24.8 °F 70% 30.50 in 10.0 mi NE 24.2 mph 31.1 mph N/A   Partly Cloudy
11:56 AM 33.8 °F 21.9 °F 24.8 °F 70% 30.50 in 10.0 mi NE 21.9 mph 28.8 mph N/A   Clear
12:16 PM 33.8 °F 21.9 °F 24.8 °F 70% 30.50 in 10.0 mi NE 21.9 mph 31.1 mph N/A   Scattered Clouds
12:36 PM 33.8 °F 21.9 °F 24.8 °F 70% 30.50 in 10.0 mi NE 21.9 mph 28.8 mph N/A   Scattered Clouds
12:56 PM 33.8 °F 22.2 °F 24.8 °F 70% 30.50 in 10.0 mi ENE 20.7 mph 27.6 mph N/A   Scattered Clouds
1:16 PM 33.8 °F 21.9 °F 26.6 °F 75% 30.50 in 10.0 mi NE 21.9 mph 25.3 mph N/A   Scattered Clouds
1:36 PM 33.8 °F 21.9 °F 26.6 °F 75% 30.50 in 10.0 mi ENE 21.9 mph 27.6 mph N/A   Partly Cloudy
1:56 PM 33.8 °F 22.2 °F 26.6 °F 75% 30.50 in 10.0 mi ENE 20.7 mph 27.6 mph N/A   Partly Cloudy
2:16 PM 33.8 °F 22.2 °F 26.6 °F 75% 30.49 in 10.0 mi ENE 20.7 mph 27.6 mph N/A   Scattered Clouds
2:36 PM 33.8 °F 22.2 °F 26.6 °F 75% 30.49 in 10.0 mi ENE 20.7 mph 24.2 mph N/A   Mostly Cloudy
2:56 PM 33.8 °F 22.5 °F 26.6 °F 75% 30.49 in 10.0 mi NE 19.6 mph 24.2 mph N/A   Scattered Clouds
3:16 PM 33.8 °F 22.2 °F 26.6 °F 75% 30.48 in 10.0 mi ENE 20.7 mph 24.2 mph N/A   Partly Cloudy
3:36 PM 33.8 °F 21.9 °F 28.4 °F 81% 30.48 in 10.0 mi ENE 21.9 mph - N/A   Clear
3:56 PM 33.8 °F 22.8 °F 28.4 °F 81% 30.48 in 10.0 mi ENE 18.4 mph - N/A   Clear
4:16 PM 35.6 °F 24.5 °F 28.4 °F 75% 30.47 in 10.0 mi ENE 20.7 mph 24.2 mph N/A   Clear
4:36 PM 35.6 °F 25.2 °F 28.4 °F 75% 30.47 in 10.0 mi NE 18.4 mph 25.3 mph N/A   Clear
4:56 PM 35.6 °F 24.8 °F 28.4 °F 75% 30.47 in 10.0 mi ENE 19.6 mph - N/A   Clear
5:16 PM 35.6 °F 25.2 °F 28.4 °F 75% 30.46 in 10.0 mi ENE 18.4 mph - N/A   Clear
5:36 PM 35.6 °F 25.2 °F 28.4 °F 75% 30.46 in 10.0 mi ENE 18.4 mph - N/A   Clear
5:56 PM 35.6 °F 25.9 °F 28.4 °F 75% 30.46 in 10.0 mi ENE 16.1 mph - N/A   Clear
6:16 PM 35.6 °F 25.5 °F 28.4 °F 75% 30.45 in 10.0 mi ENE 17.3 mph - N/A   Clear
6:36 PM 35.6 °F 25.2 °F 28.4 °F 75% 30.45 in 10.0 mi NE 18.4 mph 23.0 mph N/A   Clear
6:56 PM 33.8 °F 22.8 °F 28.4 °F 81% 30.45 in 10.0 mi NE 18.4 mph 21.9 mph N/A   Clear
7:16 PM 33.8 °F 23.5 °F 28.4 °F 81% 30.45 in 10.0 mi NE 16.1 mph 24.2 mph N/A   Clear
7:36 PM 33.8 °F 23.2 °F 28.4 °F 81% 30.44 in 10.0 mi NE 17.3 mph 25.3 mph N/A   Clear
7:56 PM 33.8 °F 22.5 °F 28.4 °F 81% 30.43 in 10.0 mi ENE 19.6 mph 26.5 mph N/A   Clear
8:16 PM 33.8 °F 21.9 °F 28.4 °F 81% 30.43 in 10.0 mi ENE 21.9 mph 25.3 mph N/A   Clear
8:36 PM 33.8 °F 22.2 °F 28.4 °F 81% 30.43 in 10.0 mi ENE 20.7 mph 27.6 mph N/A   Clear
8:56 PM 33.8 °F 21.9 °F 28.4 °F 81% 30.43 in 10.0 mi NE 21.9 mph - N/A   Clear
9:16 PM 33.8 °F 21.9 °F 28.4 °F 81% 30.42 in 10.0 mi ENE 21.9 mph 27.6 mph N/A   Clear
9:36 PM 33.8 °F 22.8 °F 28.4 °F 81% 30.42 in 10.0 mi ENE 18.4 mph 26.5 mph N/A   Clear
9:56 PM 33.8 °F 22.2 °F 28.4 °F 81% 30.42 in 10.0 mi ENE 20.7 mph 25.3 mph N/A   Clear
10:16 PM 33.8 °F 21.9 °F 28.4 °F 81% 30.43 in 10.0 mi ENE 21.9 mph 27.6 mph N/A   Clear
10:36 PM 33.8 °F 22.8 °F 28.4 °F 81% 30.43 in 10.0 mi ENE 18.4 mph - N/A   Clear
10:56 PM 33.8 °F 22.5 °F 28.4 °F 81% 30.43 in 10.0 mi ENE 19.6 mph 25.3 mph N/A   Clear
11:16 PM 35.6 °F 24.2 °F 28.4 °F 75% 30.43 in 10.0 mi ENE 21.9 mph 26.5 mph N/A   Clear
11:36 PM 33.8 °F 22.2 °F 28.4 °F 81% 30.43 in 10.0 mi ENE 20.7 mph 24.2 mph N/A   Clear
11:56 PM 33.8 °F 23.2 °F 28.4 °F 81% 30.43 in 10.0 mi ENE 17.3 mph 25.3 mph N/A   Clear